Regional Weather Roundup
Issued by NWS

Home | Current Version | Previous Version | Text Only | Print | Product List | Glossary On
Versions: 1 2 3 4 5 6 7 8 9 10 11 12 13 14 15 16 17 18 19 20 21 22 23 24 25 26 27 28 29 30 31 32 33 34 35 36 37 38 39 40 41 42 43 44 45 46 47 48 49 50
000
ASUS43 KDMX 170307
RWRIA

WEATHER ROUNDUP FOR IOWA
NATIONAL WEATHER SERVICE DES MOINES IA
900 PM CST TUE DEC 16 2014

NOTE: "FAIR" INDICATES FEW OR NO CLOUDS BELOW 12,000 FEET WITH NO
SIGNIFICANT WEATHER AND/OR OBSTRUCTIONS TO VISIBILITY.

* - THESE STATIONS ARE NOT NWS STATIONS...THUS NOT UNDER NWS
QUALITY CONTROL.  THEY ALSO DO NOT REPORT WEATHER SUCH
AS PRECIPITATION OR FOG.

IAZ001>003-012>014-020>022-031>034-043>046-170400-
   NORTHWEST IOWA

CITY           SKY/WX    TMP DP  RH WIND       PRES   REMARKS
CARROLL *      CLOUDY    18  12  79 NW16G22   30.32R WCI   3
CHEROKEE *     CLEAR     13  11  90 N5        30.32F WCI   6
DENISON *      PTCLDY    16  12  86 NW10      30.31S WCI   3
LE MARS *      PTCLDY    12  10  92 CALM      30.35R
ORANGE CITY *  PTCLDY    12  10  92 NW8       30.31F WCI   1
SHELDON *      CLEAR     10   7  85 N8        30.30F WCI  -1
SIOUX CITY     PTCLDY    17  10  74 N10       30.36R WCI   5
SPENCER        CLEAR     11   7  84 NW7       30.31S WCI   0
STORM LAKE *   MOCLDY    12  10  92 NW6       30.30S WCI   3
$$

IAZ055>058-069>071-079>083-090>094-170400-
   SOUTHWEST IOWA

CITY           SKY/WX    TMP DP  RH WIND       PRES   REMARKS
ATLANTIC *     CLEAR     18  14  86 N7        30.33R WCI   8
AUDUBON *      PTCLDY    18  10  73 NW8       30.32R WCI   7
CLARINDA *     CLEAR     23  18  80 NW12      30.36R WCI  12
COUNCIL BLFS * PTCLDY    19  16  86 NW14      30.32S WCI   6
CRESTON *      CLEAR     19  16  86 NW14G21   30.30S WCI   6
HARLAN  *      PTCLDY    18  16  93 N9        30.36S WCI   6
LAMONI         CLEAR     22  18  85 NW8       30.29S WCI  12
RED OAK *      CLEAR     21  18  86 NW7       30.34S WCI  13
SHENANDOAH *   CLEAR     21  18  86 NW7       30.36S WCI  13
$$

IAZ047>049-059>061-072>074-084-170400-
   CENTRAL IOWA

CITY           SKY/WX    TMP DP  RH WIND       PRES   REMARKS
AMES           CLOUDY    17   9  70 N15       30.31S WCI   2
ANKENY *       CLOUDY    21  14  73 N13       30.31S WCI   9
CHARITON *     CLOUDY    23  18  80 NW15      30.29S WCI  10
DES MOINES     CLOUDY    23  15  71 N10       30.31S WCI  12
GRINNELL*      FLURRIES  18  14  84 NW18      30.29S WCI   2
KNOXVILLE *    CLOUDY    25  18  74 NW15      30.28S WCI  12
MARSHALLTOWN   CLOUDY    16  11  80 NW16      30.29S WCI   1
PELLA *        CLOUDY    23  18  80 NW12G17   30.31S WCI  12
PERRY *        CLOUDY    21  17  83 N13       30.31S WCI   9
$$

IAZ004>006-015-016-023>025-035-036-170400-
   NORTH CENTRAL IOWA

CITY           SKY/WX    TMP DP  RH WIND       PRES   REMARKS
ALGONA *       CLOUDY    14  10  85 NW14      30.30F WCI  -1
CLARION *      FLURRIES  16  12  86 NW13      30.30S WCI   2
ESTHERVILLE    CLEAR     11   8  88 NW10      30.30S WCI  -3
FORT DODGE *   CLOUDY    14   7  73 NW5       30.31F WCI   6
MASON CITY     CLOUDY    16  12  84 NW15      30.28S WCI   1
FOREST CITY *  FLURRIES  18  12  79 NW13      30.27S WCI   4
IOWA FALLS *   FLURRIES  17  12  82 NW12G18   30.29F WCI   4
$$

IAZ007>011-017>019-026>030-037>042-050>054-066-170400-
   NORTHEAST IOWA

CITY           SKY/WX    TMP DP  RH WIND       PRES   REMARKS
CEDAR RAPIDS   CLOUDY    19  14  81 NW20      30.26R WCI   3
CHARLES CITY * FLURRIES  19  14  79 NW13      30.26S WCI   7
CLINTON *      CLOUDY    25  18  74 W18G24    30.23R WCI  11
DECORAH *      FLURRIES  21  14  73 NW14      30.20R WCI   8
DUBUQUE        CLOUDY    22  19  89 NW16      30.19R WCI   8
MONTICELLO *   CLOUDY    23  18  80 W15G24    30.23R WCI  10
OELWEIN *      FLURRIES  19  16  86 NW18      30.24S WCI   4
WATERLOO       CLOUDY    18  12  77 NW15      30.27S WCI   4
$$

IAZ064-065-067-068-078-170400-
   EAST CENTRAL IOWA

CITY           SKY/WX    TMP DP  RH WIND       PRES   REMARKS
DAVENPORT      CLOUDY    22  17  81 W21G28    30.23R WCI   6
IOWA CITY      CLOUDY    20  13  74 NW21G30   30.29R WCI   4
MT. PLEASANT * CLOUDY    23  17  78 NW16      30.28S WCI  10
MUSCATINE *    CLOUDY    23  16  74 W16G24    30.29R WCI  10
QUAD CITIES    CLOUDY    24  18  77 NW18G24   30.24R WCI  10
$$

IAZ062-063-075>077-085>089-095>099-170400-
   SOUTHEAST IOWA

CITY           SKY/WX    TMP DP  RH WIND       PRES   REMARKS
BURLINGTON     CLOUDY    24  18  77 NW15G24   30.27R WCI  11
FAIRFIELD *    CLOUDY    25  18  74 NW17G24   30.28F WCI  11
FORT MADISON * CLOUDY    27  21  80 W14G23    30.28R WCI  15
KEOKUK *       CLOUDY    27  21  80 NW13      30.28S WCI  16
OSKALOOSA *    CLOUDY    23  18  81 NW17      30.29F WCI   9
CENTERVILLE *  CLOUDY    25  19  80 NW8       30.30S WCI  16
OTTUMWA        CLOUDY    23  17  78 NW16      30.29R WCI  10
WASHINGTON *   CLOUDY    23  19  86 NW18G25   30.29R WCI   9
$$

ABBREVIATIONS USED IN REMARKS
   TC - TEMPERATURES IN CELSIUS
  WCI - WIND CHILL INDEX
   HX - HEAT INDEX
  VSB - VISIBILITY
$$




USA.gov is the U.S. government's official web portal to all federal, state and local government web resources and services.